Regional Weather Roundup
Issued by NWS Sioux Falls, SD

Home | Current Version | Previous Version | Graphics & Text | Print | Product List | Glossary Off
Versions: 1 2 3 4 5 6 7 8 9 10 11 12 13 14 15 16 17 18 19 20 21 22 23 24 25 26 27 28 29 30 31 32 33 34 35 36 37 38 39 40 41 42 43 44 45 46 47 48 49 50

000
ASUS43 KFSD 280210
RWRFSD

WEATHER ROUNDUP FOR SE SOUTH DAKOTA/SW MINNESOTA/NW IOWA
NATIONAL WEATHER SERVICE SIOUX FALLS SD
800 PM CST SAT DEC 27 2014

NOTE: "FAIR" INDICATES FEW OR NO CLOUDS BELOW 12,000 FEET WITH NO
SIGNIFICANT WEATHER AND OR OBSTRUCTIONS TO VISIBILITY.


SDZ038>040-050-052>070-280300-
SOUTHEAST SOUTH DAKOTA

CITY           SKY/WX    TMP DP  RH WIND       PRES   REMARKS
CHAMBERLAIN    CLEAR     12   8  83 SW5       30.10S WCI   5
HURON          CLEAR     13   9  84 S8        30.11S WCI   2
MADISON        FAIR       9   9 100 SW8       30.10F WCI  -4
MITCHELL       CLEAR     14  10  84 SW8       30.14F WCI   3
SIOUX FALLS    PTCLDY    11   7  84 SW3       30.15S
WINNER         FAIR      19  11  70 SW12      30.09F WCI   7
YANKTON        CLEAR     16  12  86 SW5       30.18S WCI   9
$$

MNZ071-072-080-081-089-090-097-098-280300-
SOUTHWEST MINNESOTA

CITY           SKY/WX    TMP DP  RH WIND       PRES   REMARKS
FAIRMONT       CLEAR     14   7  73 W15       30.13S WCI  -1
JACKSON        CLEAR     12   7  79 W9        30.13S WCI   0
LUVERNE        CLEAR      9   5  85 W3        30.16S
MARSHALL       CLEAR     12   5  73 SW20      30.10F WCI  -6
MONTEVIDEO     CLEAR     16  12  86 W8        30.11F WCI   5
PIPESTONE      CLEAR      7   3  85 W8        30.11S WCI  -6
REDWOOD FALLS  PTCLDY    13   7  77 W13       30.12S WCI  -2
TRACY          CLEAR     12   8  84 SW15      30.12S WCI  -4
WINDOM         CLEAR     10   7  85 W8        30.13S WCI  -1
WORTHINGTON    CLEAR     10 -33  12 W7        30.13S WCI   0
$$

IAZ001>003-012>014-020>022-031-032-NEZ013-014-SDZ071-280300-
NORTHWEST IOWA

CITY           SKY/WX    TMP DP  RH WIND       PRES   REMARKS
CHEROKEE       CLEAR      9   8  95 S5        30.19F WCI   0
DENISON        FAIR      16  12  86 CALM      30.20S
ESTHERVILLE    CLEAR     11   7  84 W8        30.15R WCI  -1
LE MARS        CLEAR      9   7  92 CALM      30.19F
ORANGE CITY    CLEAR     12   9  85 S5        30.16S WCI   4
SHELDON        CLEAR      9   7  92 SW5       30.15S WCI   0
SIOUX CITY     CLEAR     12   8  84 S3        30.21F
SPENCER        CLEAR      9   4  80 SW9       30.15F WCI  -4
STORM LAKE     CLEAR     12   9  85 W14       30.18S WCI  -3
$$

ABBREVIATIONS USED IN REMARKS
   TC - TEMPERATURE IN CELSIUS
  WCI - WIND CHILL INDEX
   HX - HEAT INDEX
  VSB - VISIBILITY



USA.gov is the U.S. government's official web portal to all federal, state and local government web resources and services.